Tillbaka till svenska Fidonet
English   Information   Debug  
FILM   0/18
FNEWS_PUBLISH   5034
FN_SYSOP   42247
FN_SYSOP_OLD1   71952
FTP_FIDO   0/2
FTSC_PUBLIC   0/13979
FUNNY   0/4886
GENEALOGY.EUR   0/71
GET_INFO   105
GOLDED   0/408
HAM   557/16786
HOLYSMOKE   0/6791
HOT_SITES   0/1
HTMLEDIT   0/71
HUB203   466
HUB_100   264
HUB_400   39
HUMOR   0/29
IC   0/2851
INTERNET   0/424
INTERUSER   0/3
IP_CONNECT   719
JAMNNTPD   0/233
JAMTLAND   0/47
KATTY_KORNER   0/41
LAN   0/16
LINUX-USER   0/19
LINUXHELP   0/1155
LINUX   0/22427
LINUX_BBS   0/957
mail   18.68
mail_fore_ok   249
MENSA   0/341
MODERATOR   0/102
MONTE   0/992
MOSCOW_OKLAHOMA   0/1245
MUFFIN   0/783
MUSIC   0/321
N203_STAT   938
N203_SYSCHAT   313
NET203   321
NET204   69
NET_DEV   0/10
NORD.ADMIN   0/101
NORD.CHAT   0/2572
NORD.FIDONET   189
NORD.HARDWARE   0/28
NORD.KULTUR   0/114
NORD.PROG   0/32
NORD.SOFTWARE   0/88
NORD.TEKNIK   0/58
NORD   0/453
OCCULT_CHAT   0/93
OS2BBS   0/787
OS2DOSBBS   0/580
OS2HW   0/42
OS2INET   0/37
OS2LAN   0/134
OS2PROG   0/36
OS2REXX   0/113
OS2USER-L   207
OS2   0/4835
OSDEBATE   0/18996
PASCAL   0/490
PERL   0/457
PHP   0/45
POINTS   0/405
POLITICS   0/29554
POL_INC   0/14731
PSION   103
R20_ADMIN   1133
R20_AMATORRADIO   0/2
R20_BEST_OF_FIDONET   16
R20_CHAT   0/897
R20_DEPP   0/3
R20_DEV   400
R20_ECHO2   1933
R20_ECHOPRES   0/35
R20_ESTAT   0/719
R20_FIDONETPROG...
...RAM.MYPOINT
  0/2
R20_FIDONETPROGRAM   0/22
R20_FIDONET   0/248
R20_FILEFIND   0/24
R20_FILEFOUND   0/22
R20_HIFI   0/3
R20_INFO2   3826
R20_INTERNET   0/12940
R20_INTRESSE   0/60
R20_INTR_KOM   0/99
R20_KANDIDAT.CHAT   42
R20_KANDIDAT   28
R20_KOM_DEV   112
R20_KONTROLL   0/13360
R20_KORSET   0/18
R20_LOKALTRAFIK   0/24
R20_MODERATOR   0/1852
R20_NC   76
R20_NET200   245
R20_NETWORK.OTH...
...ERNETS
  0/13
R20_OPERATIVSYS...
...TEM.LINUX
  0/44
R20_PROGRAMVAROR   0/1
R20_REC2NEC   534
R20_SFOSM   0/341
R20_SF   0/108
R20_SPRAK.ENGLISH   0/1
R20_SQUISH   107
R20_TEST   2
R20_WORST_OF_FIDONET   20
RAR   0/9
RA_MULTI   106
RA_UTIL   0/162
REGCON.EUR   0/2072
REGCON   0/13
SCIENCE   0/1206
SF   0/239
SHAREWARE_SUPPORT   0/5146
SHAREWRE   0/14
SIMPSONS   0/169
STATS_OLD1   0/2539.065
STATS_OLD2   0/2530
STATS_OLD3   1770/2395.095
STATS_OLD4   0/1692.25
SURVIVOR   0/495
SYSOPS_CORNER   0/3
SYSOP   0/84
TAGLINES   0/112
TEAMOS2   0/4530
TECH   0/2617
TEST.444   0/105
TRAPDOOR   0/19
TREK   0/755
TUB   0/290
UFO   0/40
UNIX   0/1316
USA_EURLINK   0/102
USR_MODEMS   0/1
VATICAN   0/2740
VIETNAM_VETS   0/14
VIRUS   0/378
VIRUS_INFO   0/201
VISUAL_BASIC   0/473
WHITEHOUSE   0/5187
WIN2000   0/101
WIN32   0/30
WIN95   0/4291
WIN95_OLD1   0/70272
WINDOWS   0/1517
WWB_SYSOP   0/419
WWB_TECH   0/810
ZCC-PUBLIC   0/1
ZEC   4

 
4DOS   0/134
ABORTION   0/7
ALASKA_CHAT   0/506
ALLFIX_FILE   0/1313
ALLFIX_FILE_OLD1   0/7997
ALT_DOS   0/152
AMATEUR_RADIO   0/1039
AMIGASALE   0/14
AMIGA   0/331
AMIGA_INT   0/1
AMIGA_PROG   0/20
AMIGA_SYSOP   0/26
ANIME   0/15
ARGUS   0/924
ASCII_ART   0/340
ASIAN_LINK   0/651
ASTRONOMY   0/417
AUDIO   0/92
AUTOMOBILE_RACING   0/105
BABYLON5   0/17862
BAG   135
BATPOWER   0/361
BBBS.ENGLISH   0/382
BBSLAW   0/109
BBS_ADS   0/5290
BBS_INTERNET   0/507
BIBLE   680/3563
BINKD   0/1119
BINKLEY   0/215
BLUEWAVE   0/2173
CABLE_MODEMS   0/25
CBM   0/46
CDRECORD   0/66
CDROM   0/20
CLASSIC_COMPUTER   0/378
COMICS   0/15
CONSPRCY   0/899
COOKING   42382
COOKING_OLD1   0/24719
COOKING_OLD2   19706/40862
COOKING_OLD3   0/37489
COOKING_OLD4   12624/35496
COOKING_OLD5   9370
C_ECHO   0/189
C_PLUSPLUS   0/31
DIRTY_DOZEN   0/201
DOORGAMES   0/2388
DOS_INTERNET   0/196
duplikat   6102
ECHOLIST   10211/18295
EC_SUPPORT   0/318
ELECTRONICS   0/359
ELEKTRONIK.GER   1534
ENET.LINGUISTIC   0/13
ENET.POLITICS   0/4
ENET.SOFT   0/11701
ENET.SYSOP   34388
ENET.TALKS   0/32
ENGLISH_TUTOR   0/2000
EVOLUTION   0/1335
FDECHO   0/217
FDN_ANNOUNCE   4429/7068
FIDONEWS   25217
FIDONEWS_OLD1   0/49742
FIDONEWS_OLD2   0/35949
FIDONEWS_OLD3   0/30874
FIDONEWS_OLD4   0/37224
FIDO_SYSOP   12977
FIDO_UTIL   0/180
FILEFIND   0/209
FILEGATE   0/212
Möte HAM, 16786 texter
 lista första sista föregående nästa
Text 105, 736 rader
Skriven 2004-11-26 04:01:08 av Amsat List (1:323/120.0)
Ärende: 
========
SB KEPS @ AMSAT  $ORB04330.O
Orbital Elements  04330.OSCAR

HR AMSAT ORBITAL ELEMENTS FOR OSCAR SATELLITES
FROM WA5QGD FORT WORTH,TX November 25, 2004
SEND SUBSCRIBE/UNSUBSCRIBE TO majordomo@amsat.org ONLY
BID: ORB04330.O
TO ALL RADIO AMATEURS BT

Satellite: AO-07
Catalog number: 07530
Epoch time:      04329.76769709
Element set:     351
Inclination:      101.6595 deg
RA of node:        13.8624 deg
Eccentricity:    0.0011984
Arg of perigee:   270.3149 deg
Mean anomaly:      89.6550 deg
Mean motion:   12.53569583 rev/day
Decay rate:       -2.9e-07 rev/day^2
Epoch rev:           37403
Checksum:              320

Satellite: AO-10
Catalog number: 14129
Epoch time:      04330.33895446
Element set:     124
Inclination:       26.8253 deg
RA of node:        59.8461 deg
Eccentricity:    0.6031978
Arg of perigee:   143.5706 deg
Mean anomaly:     278.7166 deg
Mean motion:    2.05869960 rev/day
Decay rate:      -1.24e-06 rev/day^2
Epoch rev:           16133
Checksum:              310

Satellite: UO-11
Catalog number: 14781
Epoch time:      04330.32373556
Element set:     644
Inclination:       98.1900 deg
RA of node:       317.9555 deg
Eccentricity:    0.0008067
Arg of perigee:   297.2026 deg
Mean anomaly:      62.8367 deg
Mean motion:   14.79080283 rev/day
Decay rate:       3.25e-06 rev/day^2
Epoch rev:           11166
Checksum:              301

Satellite: RS-10/11
Catalog number: 18129
Epoch time:      04330.15820584
Element set:     546
Inclination:       82.9268 deg
RA of node:        29.0571 deg
Eccentricity:    0.0010245
Arg of perigee:   230.3386 deg
Mean anomaly:     129.6875 deg
Mean motion:   13.72748801 rev/day
Decay rate:        2.7e-07 rev/day^2
Epoch rev:           87308
Checksum:              303

Satellite: FO-20
Catalog number: 20480
Epoch time:      04330.52207715
Element set:     750
Inclination:       99.0212 deg
RA of node:       177.4620 deg
Eccentricity:    0.0540523
Arg of perigee:   341.3592 deg
Mean anomaly:      16.8397 deg
Mean motion:   12.83343404 rev/day
Decay rate:       -3.3e-07 rev/day^2
Epoch rev:           69337
Checksum:              275

Satellite: RS-12/13
Catalog number: 21089
Epoch time:      04330.33635895
Element set:     771
Inclination:       82.9223 deg
RA of node:        62.1725 deg
Eccentricity:    0.0027809
Arg of perigee:   289.1748 deg
Mean anomaly:      70.6398 deg
Mean motion:   13.74444129 rev/day
Decay rate:        5.5e-07 rev/day^2
Epoch rev:           69249
Checksum:              331

Satellite: RS-15
Catalog number: 23439
Epoch time:      04330.50234015
Element set:     822
Inclination:       64.8149 deg
RA of node:        76.9540 deg
Eccentricity:    0.0157930
Arg of perigee:   352.3460 deg
Mean anomaly:       7.5057 deg
Mean motion:   11.27550470 rev/day
Decay rate:       -3.9e-07 rev/day^2
Epoch rev:           40842
Checksum:              278

Satellite: FO-29
Catalog number: 24278
Epoch time:      04330.76098919
Element set:     831
Inclination:       98.5777 deg
RA of node:        41.5051 deg
Eccentricity:    0.0350733
Arg of perigee:   343.4479 deg
Mean anomaly:      15.5440 deg
Mean motion:   13.52905019 rev/day
Decay rate:       -6.9e-07 rev/day^2
Epoch rev:           40868
Checksum:              326

Satellite: SO-33
Catalog number: 25509
Epoch time:      04329.69655965
Element set:     244
Inclination:       31.4276 deg
RA of node:       108.3869 deg
Eccentricity:    0.0356415
Arg of perigee:   178.9133 deg
Mean anomaly:     181.2303 deg
Mean motion:   14.27921087 rev/day
Decay rate:       7.92e-06 rev/day^2
Epoch rev:           31757
Checksum:              330

Satellite: AO-40
Catalog number: 26609
Epoch time:      04330.29044552
Element set:     460
Inclination:        9.2855 deg
RA of node:       333.0815 deg
Eccentricity:    0.7960977
Arg of perigee:   341.7979 deg
Mean anomaly:       1.1121 deg
Mean motion:    1.25586037 rev/day
Decay rate:      -1.09e-06 rev/day^2
Epoch rev:            1869
Checksum:              303

/EX
SB KEPS @ AMSAT  $ORB04330.D
Orbital Elements  04330.MICROS

HR AMSAT ORBITAL ELEMENTS FOR THE MICROSATS
FROM WA5QGD FORT WORTH,TX November 25, 2004
SEND SUBSCRIBE/UNSUBSCRIBE TO majordomo@amsat.org ONLY
BID: ORB04330.D
TO ALL RADIO AMATEURS BT

Satellite: UO-14
Catalog number: 20437
Epoch time:      04329.93975233
Element set:     646
Inclination:       98.2020 deg
RA of node:       345.0348 deg
Eccentricity:    0.0011793
Arg of perigee:    82.0658 deg
Mean anomaly:     278.1869 deg
Mean motion:   14.31384090 rev/day
Decay rate:        5.1e-07 rev/day^2
Epoch rev:           77481
Checksum:              312

Satellite: AO-16
Catalog number: 20439
Epoch time:      04330.54081140
Element set:     336
Inclination:       98.2294 deg
RA of node:         0.4880 deg
Eccentricity:    0.0011982
Arg of perigee:    87.2295 deg
Mean anomaly:     273.0273 deg
Mean motion:   14.31643903 rev/day
Decay rate:        6.2e-07 rev/day^2
Epoch rev:           77495
Checksum:              287

Satellite: WO-18
Catalog number: 20441
Epoch time:      04330.62594706
Element set:     526
Inclination:       98.2424 deg
RA of node:         4.7166 deg
Eccentricity:    0.0012661
Arg of perigee:    87.9076 deg
Mean anomaly:     272.3558 deg
Mean motion:   14.31718845 rev/day
Decay rate:        6.5e-07 rev/day^2
Epoch rev:           77502
Checksum:              305

Satellite: LO-19
Catalog number: 20442
Epoch time:      04330.10936392
Element set:     261
Inclination:       98.2527 deg
RA of node:         8.4117 deg
Eccentricity:    0.0012855
Arg of perigee:    87.3376 deg
Mean anomaly:     272.9295 deg
Mean motion:   14.31890518 rev/day
Decay rate:        5.1e-07 rev/day^2
Epoch rev:           77501
Checksum:              296

